Cordova, SC

4:11 AM EST on February 07, 2016 (GMT -0500)
Orangeburg Municipal

Weather History for KOGB - October, 2011

Change the Weather History Date:

Thursday, October 20, 2011

  Actual Average Record
Temperature  
Mean Temperature 53 °F 64 °F  
Max Temperature 62 °F 75 °F - ()
Min Temperature 44 °F 52 °F - ()
Degree Days  
Heating Degree Days 12 3  
Month to date heating degree days 36 35  
Since 1 July heating degree days 37 39  
Cooling Degree Days 0 2  
Month to date cooling degree days 35 75  
Year to date cooling degree days 2469 2069  
Growing Degree Days 2 (Base 50)    
Moisture  
Dew Point 40 °F    
Average Humidity 66    
Maximum Humidity 89    
Minimum Humidity 46    
Precipitation  
Precipitation 0.00 in 0.11 in - ()
Month to date precipitation 1.71 2.55  
Year to date precipitation 33.95 39.65  
Sea Level Pressure  
Sea Level Pressure 29.88 in    
Wind  
Wind Speed 10 mph (WSW)    
Max Wind Speed 23 mph    
Max Gust Speed 32 mph    
Visibility 10 miles    
Events      
T = Trace of Precipitation, MM = Missing Value Source: NWS Daily Summary

Daily Weather History Graph

Daily Weather History Graph

Search for Another Location

Airport or City:

Trip Planner

Search our weather history database for the weather conditions in past years. The results will help you decide how hot, cold, wet, or windy it might be!

Date:

Astronomy

Oct. 20, 2011 Rise Set
Actual Time 7:31 AM EDT 6:44 PM EDT
Civil Twilight 7:06 AM EDT 7:09 PM EDT
Nautical Twilight 6:37 AM EDT 7:38 PM EDT
Astronomical Twilight 6:08 AM EDT 8:07 PM EDT
Moon 12:36 AM EDT (10/20) 2:33 PM EDT (10/20)
Length of Visible Light 12h 02m
Length of Day
11h 12m
Last Quarter, 44% of the Moon is Illuminated
Oct 20
Last Quarter
Oct 26
New
Nov 2
First Quarter
Nov 10
Full
Nov 18
Last Quarter

Hourly Weather History & Observations

Time (EDT) Temp. Windchill Dew Point Humidity Pressure Visibility Wind Dir Wind Speed Gust Speed Precip Events Conditions
12:53 AM 50.0 °F - 39.9 °F 68% 29.69 in 10.0 mi WSW 13.8 mph - N/A   Clear
1:53 AM 50.0 °F - 39.9 °F 68% 29.71 in 10.0 mi WSW 13.8 mph - N/A   Clear
2:53 AM 48.9 °F - 39.9 °F 71% 29.74 in 10.0 mi WSW 12.7 mph - N/A   Clear
3:53 AM 48.0 °F - 41.0 °F 77% 29.75 in 10.0 mi WSW 10.4 mph - N/A   Clear
4:53 AM 46.9 °F - 41.0 °F 80% 29.77 in 10.0 mi SW 8.1 mph - N/A   Clear
5:53 AM 46.0 °F 41.9 °F 39.9 °F 79% 29.80 in 10.0 mi SW 8.1 mph - N/A   Clear
6:53 AM 45.0 °F 42.6 °F 39.9 °F 82% 29.82 in 10.0 mi SSW 4.6 mph - N/A   Clear
7:53 AM 45.0 °F 41.2 °F 41.0 °F 86% 29.84 in 10.0 mi SW 6.9 mph - N/A   Overcast
8:53 AM 51.1 °F - 39.9 °F 66% 29.87 in 10.0 mi West 12.7 mph 19.6 mph N/A   Mostly Cloudy
9:53 AM 54.0 °F - 39.9 °F 59% 29.90 in 10.0 mi West 16.1 mph 27.6 mph N/A   Mostly Cloudy
10:53 AM 54.0 °F - 39.0 °F 57% 29.91 in 10.0 mi WSW 18.4 mph 26.5 mph N/A   Mostly Cloudy
11:53 AM 59.0 °F - 39.0 °F 48% 29.91 in 10.0 mi WSW 17.3 mph 25.3 mph N/A   Mostly Cloudy
12:53 PM 57.0 °F - 39.0 °F 51% 29.91 in 10.0 mi West 15.0 mph 24.2 mph N/A   Overcast
1:53 PM 59.0 °F - 39.0 °F 48% 29.90 in 10.0 mi West 16.1 mph 25.3 mph N/A   Overcast
2:53 PM 60.1 °F - 39.9 °F 47% 29.89 in 10.0 mi West 17.3 mph 25.3 mph N/A   Scattered Clouds
3:53 PM 60.1 °F - 39.9 °F 47% 29.89 in 10.0 mi West 13.8 mph 20.7 mph N/A   Scattered Clouds
5:53 PM 59.0 °F - 41.0 °F 51% 29.92 in 10.0 mi West 9.2 mph - N/A   Clear
6:53 PM 54.0 °F - 42.1 °F 64% 29.94 in 10.0 mi West 6.9 mph - N/A   Clear
7:53 PM 51.1 °F - 43.0 °F 74% 29.97 in 10.0 mi West 4.6 mph - N/A   Clear
8:53 PM 50.0 °F - 43.0 °F 77% 29.99 in 10.0 mi WSW 4.6 mph - N/A   Clear
9:53 PM 50.0 °F - 42.1 °F 74% 30.01 in 10.0 mi WNW 5.8 mph - N/A   Clear
10:53 PM 48.9 °F - 41.0 °F 74% 30.03 in 10.0 mi NW 4.6 mph - N/A   Clear
11:53 PM 48.0 °F - 39.9 °F 74% 30.04 in 10.0 mi WSW 4.6 mph - N/A   Clear